Snowfall_Accumulation
0.3 0.3 0.3 0.2 0.1 0.3 0.4 0.5 1.3 1.3 0.2 0.1 0.1 0.1 0.1 0.1 0.1 0.2 0.2 0.1 0.0 0.1 0.1 0.1 0.2 0.2 0.2 0.2 0.2 0.2 0.2 0.1 0.1 0.1 0.1 0.0 0.0 0.0
0.4 0.5 0.4 0.3 0.2 0.3 0.4 0.4 0.8 1.4 1.2 0.2 0.1 0.1 0.1 0.1 0.1 0.1 0.1 0.2 0.2 0.3 0.1 0.1 0.2 0.2 0.3 0.3 0.3 0.3 0.2 0.2 0.2 0.2 0.2 0.1 0.1 0.0
0.5 0.6 0.6 0.5 0.5 0.4 0.4 0.4 0.6 1.1 1.5 0.5 0.2 0.2 0.2 0.3 0.2 0.0 0.0 0.1 0.2 0.1 0.2 0.1 0.2 0.3 0.4 0.4 0.4 0.4 0.4 0.3 0.3 0.3 0.3 0.3 0.2 0.2
0.7 0.5 0.6 0.6 0.7 0.7 0.6 0.6 0.6 0.8 1.3 1.3 0.6 0.7 0.6 0.4 0.3 0.2 0.1 0.2 0.1 0.1 0.2 0.2 0.3 0.4 0.5 0.6 0.6 0.6 0.5 0.5 0.5 0.4 0.3 0.3 0.3 0.3
0.7 0.8 0.8 0.8 0.9 1.1 0.7 0.8 0.8 0.8 1.2 1.7 1.3 1.0 0.9 0.7 0.6 0.6 0.4 0.2 0.1 0.1 0.1 0.2 0.3 0.4 0.8 0.7 0.6 0.6 0.7 0.6 0.6 0.6 0.6 0.5 0.5 0.4
0.8 0.9 1.0 1.3 1.3 1.3 1.4 1.4 1.3 1.8 2.0 2.2 2.1 2.0 1.7 1.1 1.1 1.2 1.1 0.9 0.6 0.3 0.3 0.2 0.4 0.5 0.5 0.3 0.4 0.4 0.5 0.7 0.9 0.9 1.0 0.9 0.8 0.7
1.3 1.3 1.5 1.5 1.4 1.6 2.0 2.6 2.7 3.3 3.5 4.2 3.9 3.0 1.7 1.4 1.2 1.1 1.8 1.6 1.3 0.7 0.8 0.6 0.8 0.8 0.6 0.3 0.4 0.3 0.6 1.0 1.1 1.2 1.3 1.4 1.3 1.1
2.1 1.9 2.0 2.0 1.9 1.7 1.6 2.0 3.3 5.0 6.1 6.3 4.7 3.0 1.7 1.1 1.3 1.6 2.5 3.2 2.5 0.9 1.3 0.9 0.7 1.0 1.0 0.4 0.6 0.6 0.8 1.1 1.3 1.4 1.6 1.6 1.6 1.4
2.7 2.9 2.8 2.4 2.2 2.1 2.0 2.0 2.3 2.9 3.8 4.4 4.3 2.6 1.6 1.6 2.6 3.7 3.7 4.0 3.2 1.7 1.8 2.3 1.2 1.2 1.2 0.9 0.7 0.7 0.5 0.9 1.2 1.6 1.8 2.0 1.8 1.6
3.2 2.7 2.5 2.2 2.1 2.8 3.1 3.7 2.6 1.9 1.4 1.7 2.1 1.9 1.9 1.7 2.9 4.5 4.5 4.0 2.3 1.3 1.4 3.0 1.9 1.6 1.6 1.2 1.0 0.8 1.0 1.1 1.6 2.0 2.1 2.1 2.0 2.1
2.5 2.1 2.1 2.1 2.3 3.5 4.8 5.3 3.0 1.6 1.1 1.4 1.8 2.1 2.1 2.4 2.7 5.0 6.1 6.4 5.7 2.4 1.4 3.0 2.5 2.4 1.9 1.9 1.1 1.2 1.3 1.7 1.3 1.3 1.7 1.7 1.9 2.1
2.2 1.6 1.6 2.1 3.0 4.4 5.3 5.5 4.7 2.9 2.7 1.7 1.4 1.3 1.6 1.5 1.7 3.4 5.8 9.3 8.8 6.0 2.1 3.2 3.6 4.5 5.9 2.7 1.7 1.7 1.6 1.3 1.8 1.7 1.3 1.5 1.9 2.5
2.9 2.2 1.4 2.4 3.7 4.6 4.6 4.7 4.7 4.8 4.3 3.7 2.9 2.6 2.4 2.3 1.8 1.9 3.4 7.6 11.3 8.6 3.4 6.6 8.5 6.8 9.5 6.0 2.9 2.3 2.3 2.3 1.8 2.0 2.1 2.3 2.6 4.1
4.0 2.9 2.7 3.4 4.0 3.8 3.7 3.5 4.3 4.8 5.1 4.9 4.2 3.7 3.2 3.3 3.1 2.9 3.2 3.6 5.2 6.3 4.2 7.6 13.9 10.7 12.8 10.6 6.0 4.3 3.8 3.2 3.3 4.0 3.7 3.8 4.4 4.4
4.0 3.7 4.0 4.1 4.0 3.6 3.2 3.4 3.7 4.5 5.3 5.7 5.3 4.2 3.8 3.8 3.7 3.7 3.4 3.3 3.7 3.6 3.6 4.7 9.3 10.5 13.2 13.8 9.0 5.3 5.2 4.9 4.2 5.3 5.2 5.3 5.3 5.5
4.3 3.8 3.5 3.3 3.5 3.4 3.2 3.8 3.8 4.4 5.4 6.0 5.8 5.1 4.6 4.9 5.1 5.0 5.4 5.2 6.1 5.1 4.0 3.9 5.3 9.4 12.2 9.4 9.5 9.0 6.3 7.4 6.6 7.1 7.4 6.9 5.9 5.6
6.0 5.1 4.2 3.7 3.8 4.0 4.1 4.0 4.3 4.5 6.0 5.7 6.5 6.9 6.2 6.0 5.9 5.9 7.4 8.0 8.5 6.5 5.6 4.7 4.7 5.8 7.5 9.4 10.8 8.3 7.0 7.3 8.2 9.6 10.9 10.4 6.7 4.9
6.5 6.4 4.9 4.2 4.6 4.8 5.1 5.5 5.6 6.1 6.5 7.0 7.6 7.9 8.4 8.1 7.9 7.1 8.0 9.4 9.4 7.4 7.1 6.4 7.5 8.9 8.9 7.6 7.1 8.9 9.1 9.4 9.7 10.5 12.3 14.4 11.3 6.0
6.7 6.0 5.1 5.0 5.3 5.4 5.6 6.2 6.6 6.4 7.0 8.3 9.0 9.7 10.5 10.0 9.3 9.0 9.1 9.2 8.8 8.1 7.5 7.8 10.3 15.2 15.8 10.7 6.9 7.5 11.5 12.4 11.5 11.6 12.5 15.2 17.0 10.4
5.5 6.0 6.2 5.8 5.9 6.1 6.4 6.8 6.9 7.0 7.9 8.3 9.1 10.5 11.6 12.4 11.7 10.5 9.5 9.9 10.2 9.3 8.2 7.4 9.1 14.0 19.5 16.6 12.6 9.2 8.5 13.7 16.0 16.5 14.0 11.7 9.5 6.3
5.8 6.1 6.7 6.9 7.2 7.3 7.3 7.5 8.1 8.4 8.4 9.7 10.1 10.8 12.1 13.8 13.0 11.3 11.0 10.5 11.5 11.7 10.7 8.1 7.3 9.1 14.1 17.2 15.3 10.6 10.0 8.8 11.8 18.7 18.8 17.6 14.5 12.1
5.9 6.3 6.5 7.1 7.6 8.1 8.5 8.6 8.9 8.7 9.2 10.1 10.7 11.0 11.7 13.7 14.1 12.8 12.5 12.4 11.5 11.1 10.5 8.9 8.6 10.2 13.3 16.8 13.6 9.4 9.2 8.8 8.5 8.3 11.2 16.2 26.0 27.7
6.9 7.0 6.8 7.3 7.5 8.3 9.0 9.2 9.3 9.0 9.1 10.5 11.7 12.0 12.5 13.1 12.9 13.5 13.5 13.1 13.1 12.4 11.7 11.1 9.6 9.7 10.4 11.1 11.7 10.1 9.1 9.0 8.9 9.8 11.3 10.7 9.5 11.4